GW7221 Weather Reports


Display with metric or nautical units.
time (UTC)temp
F
wind
direction
speed
MPH
gust
MPH
rain 1hr
in
rain 24hr
in
rain mn
in
humidity
%
barometer
mb
20260510011345 62 154 3.0 3.0 0.00 0.00 0.00 74 1029.8
20260510010845 62 117 3.0 3.0 0.00 0.00 0.00 74 1029.8
20260510010345 62 143 2.0 5.0 0.00 0.00 0.00 74 1029.8
20260510005845 61 125 2.0 5.0 0.00 0.00 0.00 77 1029.5
20260510005345 61 107 2.0 3.0 0.00 0.00 0.00 77 1029.8
20260510004845 61 130 2.0 3.0 0.00 0.00 0.00 80 1029.8
20260510004346 61 134 3.0 5.0 0.00 0.00 0.00 79 1029.8
20260510003845 60 144 4.0 6.0 0.00 0.00 0.00 77 1029.5
20260510003346 60 137 3.0 3.0 0.00 0.00 0.00 80 1029.8
20260510002845 59 136 3.0 5.0 0.00 0.00 0.00 83 1029.8
20260510002345 58 153 2.0 3.0 0.00 0.00 0.00 82 1029.8
20260510001845 57 162 2.0 2.0 0.00 0.00 0.00 84 1029.8
20260510001345 57 115 1.0 1.0 0.00 0.00 0.00 84 1029.8
20260510000845 57 136 1.0 1.0 0.00 0.00 0.00 85 1029.8
20260510000345 57 135 1.0 1.0 0.00 0.00 0.00 86 1030.1
20260509235845 56 100 1.0 1.0 0.00 0.00 0.00 86 1029.8
20260509235346 56 89 0.0 1.0 0.00 0.00 0.00 87 1030.1
20260509234845 55 49 0.0 1.0 0.00 0.00 0.00 87 1030.1
20260509234346 55 8 0.0 0.0 0.00 0.00 0.00 88 1030.1
20260509233845 54 8 1.0 1.0 0.00 0.00 0.00 88 1030.1
20260509233345 54 8 1.0 1.0 0.00 0.00 0.00 88 1029.8
20260509232845 54 8 0.0 0.0 0.00 0.00 0.00 87 1030.1
20260509232346 54 8 1.0 0.0 0.00 0.00 0.00 87 1029.8
20260509231845 54 7 1.0 1.0 0.00 0.00 0.00 87 1029.8
20260509231345 55 350 0.0 0.0 0.00 0.00 0.00 86 1029.8
20260509230845 56 350 0.0 0.0 0.00 0.00 0.00 85 1029.8
20260509230347 56 338 0.0 0.0 0.00 0.00 0.00 89 1029.8
20260509225845 53 338 0.0 0.0 0.00 0.00 0.00 91 1029.5
20260509225345 52 337 0.0 0.0 0.00 0.00 0.00 92 1029.5
20260509224846 52 337 0.0 0.0 0.00 0.00 0.00 93 1029.5
20260509224346 52 337 0.0 0.0 0.00 0.00 0.00 93 1029.5
20260509223847 51 337 0.0 0.0 0.00 0.00 0.00 93 1029.5
20260509223346 50 337 0.0 0.0 0.00 0.00 0.00 94 1029.1
20260509222846 49 337 0.0 0.0 0.00 0.00 0.00 93 1029.1
20260509222346 49 337 0.0 0.0 0.00 0.00 0.00 94 1029.1
20260509221845 48 337 0.0 0.0 0.00 0.00 0.00 93 1029.1
20260509221345 47 337 0.0 0.0 0.00 0.00 0.00 93 1029.5
20260509220845 47 337 0.0 0.0 0.00 0.00 0.00 93 1029.1
20260509220345 47 337 0.0 0.0 0.00 0.00 0.00 93 1028.8
20260509215846 48 337 0.0 0.0 0.00 0.00 0.00 93 1029.1
20260509215346 48 337 0.0 0.0 0.00 0.00 0.00 93 1028.8
20260509214845 47 337 0.0 0.0 0.00 0.00 0.00 93 1029.1
20260509214350 48 337 0.0 0.0 0.00 0.00 0.00 93 1028.8
20260509213845 48 337 0.0 0.0 0.00 0.00 0.00 93 1028.8
20260509213345 47 337 0.0 0.0 0.00 0.00 0.00 93 1028.8
20260509212846 47 337 0.0 0.0 0.00 0.00 0.00 93 1028.8
20260509212346 47 337 0.0 0.0 0.00 0.00 0.00 93 1028.8
20260509211845 47 337 0.0 0.0 0.00 0.00 0.00 93 1028.8
20260509211354 48 337 0.0 0.0 0.00 0.00 0.00 92 1028.8
20260509210845 48 337 0.0 0.0 0.00 0.00 0.00 92 1028.8
20260509210346 48 338 0.0 0.0 0.00 0.00 0.00 93 1028.8
20260509205846 48 337 0.0 0.0 0.00 0.00 0.00 93 1028.8
20260509205345 48 337 0.0 0.0 0.00 0.00 0.00 93 1028.4
20260509204845 48 337 0.0 1.0 0.00 0.00 0.00 93 1028.1
20260509204345 48 338 1.0 2.0 0.00 0.00 0.00 93 1028.4
20260509203845 48 331 1.0 1.0 0.00 0.00 0.00 93 1028.1
20260509203345 47 312 0.0 1.0 0.00 0.00 0.00 93 1028.4
20260509202846 47 312 0.0 0.0 0.00 0.00 0.00 93 1028.4
20260509202346 47 311 0.0 0.0 0.00 0.00 0.00 93 1028.4
20260509201845 46 312 0.0 0.0 0.00 0.00 0.00 93 1028.1
20260509201346 46 312 0.0 0.0 0.00 0.00 0.00 93 1028.1
20260509200845 46 311 0.0 0.0 0.00 0.00 0.00 93 1028.1
20260509200345 46 312 1.0 0.0 0.00 0.00 0.00 92 1028.1
20260509195845 46 311 0.0 0.0 0.00 0.00 0.00 92 1028.1
20260509195345 46 312 1.0 1.0 0.00 0.00 0.00 92 1028.1
20260509194845 46 311 0.0 1.0 0.00 0.00 0.00 92 1028.1
20260509194345 46 311 0.0 0.0 0.00 0.00 0.00 92 1028.1
20260509193845 47 311 0.0 0.0 0.00 0.00 0.00 92 1028.1
20260509193346 47 312 1.0 1.0 0.00 0.00 0.00 92 1028.1
20260509192845 47 315 2.0 2.0 0.00 0.00 0.00 92 1028.1
20260509192345 47 17 1.0 1.0 0.00 0.00 0.00 92 1028.1
20260509191845 47 17 1.0 1.0 0.00 0.00 0.00 92 1027.8
20260509191345 47 17 1.0 1.0 0.00 0.00 0.00 92 1027.8
20260509190845 47 17 0.0 0.0 0.00 0.00 0.00 92 1027.8
20260509190346 46 17 0.0 0.0 0.00 0.00 0.00 92 1028.1
20260509185845 46 17 0.0 0.0 0.00 0.00 0.00 91 1027.8
20260509185346 47 17 0.0 0.0 0.00 0.00 0.00 91 1027.8
20260509184846 47 17 0.0 0.0 0.00 0.00 0.00 91 1028.1
20260509184345 47 17 0.0 0.0 0.00 0.00 0.00 91 1027.8
20260509183845 47 17 0.0 1.0 0.00 0.00 0.00 92 1027.8
20260509183346 47 17 1.0 0.0 0.00 0.00 0.00 91 1027.8
20260509182845 47 17 0.0 1.0 0.00 0.00 0.00 91 1027.4
20260509182346 47 17 0.0 1.0 0.00 0.00 0.00 91 1027.8
20260509181846 47 17 1.0 1.0 0.00 0.00 0.00 91 1027.4
20260509181345 47 17 1.0 1.0 0.00 0.00 0.00 91 1027.8
20260509180845 47 17 1.0 1.0 0.00 0.00 0.00 90 1027.8
20260509180346 48 18 1.0 1.0 0.00 0.00 0.00 90 1027.8
20260509175845 48 18 1.0 1.0 0.00 0.00 0.00 90 1027.8
20260509175346 48 18 0.0 0.0 0.00 0.00 0.00 90 1027.8
20260509174846 48 18 0.0 0.0 0.00 0.00 0.00 89 1027.8
20260509174345 49 18 0.0 0.0 0.00 0.00 0.00 89 1027.8
20260509173855 49 18 0.0 1.0 0.00 0.00 0.00 89 1027.8
20260509173345 50 18 0.0 0.0 0.00 0.00 0.00 89 1027.8
20260509172845 51 18 0.0 0.0 0.00 0.00 0.00 88 1027.8
20260509171918 51 18 0.0 0.0 0.00 0.00 0.00 88 1028.1
20260509171347 52 18 0.0 1.0 0.00 0.00 0.00 87 1027.8
20260509170845 52 53 0.0 0.0 0.00 0.00 0.00 87 1027.8
20260509170345 52 54 0.0 0.0 0.00 0.00 0.00 86 1027.8
20260509165845 53 57 0.0 2.0 0.00 0.00 0.00 86 1027.8
20260509165345 53 64 0.0 0.0 0.00 0.00 0.00 85 1028.1
20260509164845 54 64 2.0 2.0 0.00 0.00 0.00 85 1028.1
20260509164346 54 104 1.0 2.0 0.00 0.00 0.00 85 1027.8
20260509163846 54 93 1.0 1.0 0.00 0.00 0.00 85 1027.8
20260509163346 54 97 1.0 1.0 0.00 0.00 0.00 85 1027.8
20260509162845 54 90 1.0 3.0 0.00 0.00 0.00 86 1028.1
20260509162345 54 284 1.0 2.0 0.00 0.00 0.00 86 1028.1
20260509161846 55 84 0.0 0.0 0.00 0.00 0.00 86 1027.8
20260509161345 55 83 1.0 1.0 0.00 0.00 0.00 86 1028.1
20260509160847 54 80 1.0 2.0 0.00 0.00 0.00 87 1028.1
20260509160345 54 82 0.0 1.0 0.00 0.00 0.00 87 1027.8
20260509155845 55 83 0.0 0.0 0.00 0.00 0.00 87 1028.1
20260509155349 55 84 2.0 2.0 0.00 0.00 0.00 87 1028.1
20260509154845 55 118 1.0 2.0 0.00 0.00 0.00 87 1028.4
20260509154345 56 110 0.0 0.0 0.00 0.00 0.00 87 1028.4
20260509153846 56 94 0.0 0.0 0.00 0.00 0.00 87 1027.8
20260509153345 56 93 0.0 0.0 0.00 0.00 0.00 86 1028.4
20260509152845 57 94 0.0 0.0 0.00 0.00 0.00 85 1028.4
20260509152345 58 94 0.0 0.0 0.00 0.00 0.00 84 1028.1
20260509151845 58 94 0.0 1.0 0.00 0.00 0.00 84 1028.1
20260509151345 59 101 0.0 0.0 0.00 0.00 0.00 84 1028.4
20260509150847 59 102 1.0 5.0 0.00 0.00 0.00 84 1028.4
20260509150346 59 145 3.0 3.0 0.00 0.00 0.00 83 1028.4
20260509145845 59 147 3.0 6.0 0.00 0.00 0.00 82 1028.4
20260509145345 59 144 4.0 6.0 0.00 0.00 0.00 82 1028.4
20260509144845 59 147 2.0 7.0 0.00 0.00 0.00 83 1028.4
20260509143911 59 233 0.0 1.0 0.00 0.00 0.00 85 1028.8
20260509143345 59 249 0.0 1.0 0.00 0.00 0.00 85 1028.8
20260509142846 59 173 1.0 3.0 0.00 0.00 0.00 84 1028.8
20260509142345 59 150 3.0 6.0 0.00 0.00 0.00 85 1028.4
20260509141847 58 205 1.0 2.0 0.00 0.00 0.00 87 1028.8
20260509141346 58 200 1.0 2.0 0.00 0.00 0.00 86 1028.8
20260509140847 59 208 1.0 2.0 0.00 0.00 0.00 86 1028.8
20260509140345 59 194 2.0 2.0 0.00 0.00 0.00 86 1028.8
20260509135845 58 177 2.0 3.0 0.00 0.00 0.00 86 1028.8
20260509135345 58 159 3.0 3.0 0.00 0.00 0.00 87 1028.8
20260509134845 59 163 2.0 3.0 0.00 0.00 0.00 87 1028.8
20260509134346 59 157 3.0 6.0 0.00 0.00 0.00 86 1028.8
20260509133845 59 156 4.0 6.0 0.00 0.00 0.00 86 1028.8
20260509133345 59 129 4.0 6.0 0.00 0.00 0.00 85 1029.1
20260509132845 59 127 3.0 3.0 0.00 0.00 0.00 86 1028.8
20260509132345 59 148 1.0 2.0 0.00 0.00 0.00 86 1028.8
20260509131845 59 141 1.0 2.0 0.00 0.00 0.00 86 1029.1
20260509131346 59 145 2.0 2.0 0.00 0.00 0.00 86 1029.1
20260509130845 59 151 3.0 3.0 0.00 0.00 0.00 86 1029.1
20260509130346 59 183 3.0 3.0 0.00 0.00 0.00 85 1029.1
20260509125845 59 181 3.0 3.0 0.00 0.00 0.00 85 1029.1
20260509125345 59 160 3.0 5.0 0.00 0.00 0.00 85 1029.1
20260509124845 60 152 4.0 5.0 0.00 0.00 0.00 84 1028.8
20260509124346 60 160 3.0 5.0 0.00 0.00 0.00 84 1029.1
20260509123846 60 168 5.0 6.0 0.00 0.00 0.00 84 1029.1
20260509123345 59 177 2.0 5.0 0.00 0.00 0.00 84 1029.1
20260509122845 58 156 3.0 5.0 0.00 0.00 0.00 86 1029.1
20260509122346 58 168 0.0 2.0 0.00 0.00 0.00 86 1029.1
20260509121845 57 167 1.0 1.0 0.00 0.00 0.00 86 1029.1
20260509121345 57 167 0.0 0.0 0.00 0.00 0.00 84 1029.1
20260509120846 58 167 0.0 0.0 0.00 0.00 0.00 84 1029.1
20260509120345 58 167 0.0 0.0 0.00 0.00 0.00 83 1029.1
20260509115845 59 158 0.0 0.0 0.00 0.00 0.00 83 1029.1
20260509115345 59 158 1.0 2.0 0.00 0.00 0.00 83 1029.1
20260509114846 59 156 0.0 0.0 0.00 0.00 0.00 82 1029.1
20260509114346 59 156 1.0 1.0 0.00 0.00 0.00 82 1029.1
20260509113846 59 134 1.0 2.0 0.00 0.00 0.00 83 1029.1
20260509113345 59 127 0.0 1.0 0.00 0.00 0.00 83 1028.8
20260509112846 59 154 0.0 0.0 0.00 0.00 0.00 83 1029.1
20260509112346 59 154 1.0 2.0 0.00 0.00 0.00 83 1029.1
20260509111846 59 158 1.0 2.0 0.00 0.00 0.00 83 1029.1
20260509111345 59 161 1.0 1.0 0.00 0.00 0.00 83 1029.1
20260509110846 59 164 1.0 2.0 0.00 0.00 0.00 84 1029.1
20260509110346 59 159 2.0 2.0 0.00 0.00 0.00 84 1029.1
20260509105845 59 170 1.0 1.0 0.00 0.00 0.00 84 1029.1
20260509105345 59 170 1.0 2.0 0.00 0.00 0.00 84 1029.1
20260509104845 59 158 1.0 2.0 0.00 0.00 0.00 84 1029.1
20260509104346 59 159 2.0 2.0 0.00 0.00 0.00 85 1029.1
20260509103845 59 200 1.0 2.0 0.00 0.00 0.00 85 1029.1
20260509103345 58 195 2.0 2.0 0.00 0.00 0.00 85 1029.1
20260509102845 58 194 2.0 3.0 0.00 0.00 0.00 86 1029.1
20260509102346 58 192 2.0 3.0 0.00 0.00 0.00 86 1029.1
20260509101846 57 226 0.0 1.0 0.00 0.00 0.00 85 1029.1
20260509101345 58 221 0.0 0.0 0.00 0.00 0.00 85 1029.1
20260509100846 58 221 0.0 0.0 0.00 0.00 0.00 85 1029.1
20260509100345 58 191 2.0 2.0 0.00 0.00 0.00 85 1029.1
20260509095845 58 208 1.0 2.0 0.00 0.00 0.00 86 1029.1
20260509095345 57 207 1.0 3.0 0.00 0.00 0.00 86 1029.1
20260509094845 57 215 3.0 3.0 0.00 0.00 0.00 87 1029.1
20260509094347 57 186 3.0 7.0 0.00 0.00 0.00 87 1029.1
20260509093845 57 165 5.0 8.0 0.00 0.00 0.00 87 1029.1
20260509093345 58 156 6.0 10.0 0.00 0.00 0.00 86 1029.1
20260509092845 59 159 11.0 13.0 0.00 0.00 0.00 85 1029.1
20260509092345 60 177 5.0 10.0 0.00 0.00 0.00 82 1029.1
20260509091845 59 154 3.0 7.0 0.00 0.00 0.00 80 1029.1
20260509091345 59 166 5.0 7.0 0.00 0.00 0.00 81 1029.1
20260509090846 59 161 5.0 9.0 0.00 0.00 0.00 80 1029.1
20260509090345 59 154 5.0 8.0 0.00 0.00 0.00 81 1029.1
20260509085845 59 144 6.0 9.0 0.00 0.00 0.00 81 1028.8
20260509085345 60 155 5.0 7.0 0.00 0.00 0.00 81 1029.1
20260509084845 60 169 6.0 9.0 0.00 0.00 0.00 80 1029.1
20260509084345 60 162 6.0 8.0 0.00 0.00 0.00 81 1029.1
20260509083845 60 149 8.0 9.0 0.00 0.00 0.00 81 1028.8
20260509083345 60 161 6.0 8.0 0.00 0.00 0.00 81 1028.8
20260509082845 61 167 6.0 11.0 0.00 0.00 0.00 79 1028.8
20260509082345 61 161 6.0 9.0 0.00 0.00 0.00 76 1028.8
20260509081845 61 182 5.0 9.0 0.00 0.00 0.00 75 1028.8
20260509081345 61 145 7.0 7.0 0.00 0.00 0.00 75 1028.8
20260509080845 61 190 6.0 8.0 0.00 0.00 0.00 75 1028.8
20260509080345 61 175 4.0 6.0 0.00 0.00 0.00 75 1028.8
20260509075845 61 147 4.0 5.0 0.00 0.00 0.00 75 1028.8
20260509075345 61 174 4.0 5.0 0.00 0.00 0.00 75 1028.8
20260509074845 61 163 4.0 6.0 0.00 0.00 0.00 75 1028.8
20260509074345 61 144 4.0 6.0 0.00 0.00 0.00 75 1028.8
20260509073845 61 145 5.0 7.0 0.00 0.00 0.00 73 1028.8
20260509073346 61 173 4.0 7.0 0.00 0.00 0.00 73 1028.4
20260509072845 61 160 5.0 8.0 0.00 0.00 0.00 73 1028.4
20260509072345 61 138 5.0 8.0 0.00 0.00 0.00 74 1028.8
20260509071845 62 150 6.0 8.0 0.00 0.00 0.00 72 1028.8
20260509071345 62 167 4.0 7.0 0.00 0.00 0.00 71 1028.8
20260509070845 61 146 7.0 8.0 0.00 0.00 0.00 70 1028.8
20260509070345 62 162 6.0 8.0 0.00 0.00 0.00 72 1028.8
20260509065845 62 147 4.0 7.0 0.00 0.00 0.00 74 1028.4
20260509065345 62 136 6.0 9.0 0.00 0.00 0.00 72 1028.8
20260509064845 62 160 3.0 7.0 0.00 0.00 0.00 72 1028.8
20260509064346 62 175 6.0 9.0 0.00 0.00 0.00 71 1028.8
20260509063846 62 151 6.0 8.0 0.00 0.00 0.00 69 1028.8
20260509063345 62 107 7.0 8.0 0.00 0.00 0.00 69 1028.8
20260509062845 62 131 5.0 8.0 0.00 0.00 0.00 70 1028.8
20260509062345 62 151 8.0 13.0 0.00 0.00 0.00 68 1028.4
20260509061847 62 165 7.0 8.0 0.00 0.00 0.00 71 1028.8
20260509061346 62 155 6.0 8.0 0.00 0.00 0.00 71 1028.4
20260509060845 62 168 5.0 10.0 0.00 0.00 0.00 71 1028.8
20260509060346 62 153 5.0 9.0 0.00 0.00 0.00 71 1028.4
20260509055845 62 140 6.0 8.0 0.00 0.00 0.00 70 1028.4
20260509055345 63 155 5.0 7.0 0.00 0.00 0.00 71 1028.8
20260509054846 63 138 6.0 9.0 0.00 0.00 0.00 71 1028.4
20260509054345 63 149 4.0 7.0 0.00 0.00 0.00 71 1028.4
20260509053846 62 146 5.0 8.0 0.00 0.00 0.00 71 1028.4
20260509053346 62 142 5.0 9.0 0.00 0.00 0.00 71 1028.8
20260509052845 62 165 6.0 7.0 0.00 0.00 0.00 71 1028.4
20260509052345 63 140 5.0 9.0 0.00 0.00 0.00 73 1028.8
20260509051846 63 171 4.0 8.0 0.00 0.00 0.00 72 1028.4
20260509051345 63 122 5.0 8.0 0.00 0.00 0.00 74 1028.4
20260509050846 63 134 5.0 9.0 0.00 0.00 0.00 72 1028.8
20260509050345 63 152 5.0 10.0 0.00 0.00 0.00 72 1028.8
20260509045845 63 172 6.0 9.0 0.00 0.00 0.00 72 1028.8
20260509045345 63 177 4.0 7.0 0.00 0.00 0.00 73 1028.8
20260509044845 63 151 4.0 8.0 0.00 0.00 0.00 75 1028.8
20260509043858 63 169 5.0 7.0 0.00 0.00 0.00 75 1028.8
20260509043346 63 181 7.0 7.0 0.00 0.00 0.00 73 1029.1
20260509042845 63 215 8.0 9.0 0.00 0.00 0.00 73 1028.8
20260509042345 63 135 5.0 7.0 0.00 0.00 0.00 75 1029.1
20260509041845 63 157 7.0 9.0 0.00 0.00 0.00 75 1029.1
20260509041345 63 155 5.0 8.0 0.00 0.00 0.00 75 1029.1
20260509040845 64 158 7.0 8.0 0.00 0.00 0.00 73 1029.1
20260509040346 64 192 5.0 7.0 0.00 0.00 0.00 73 1029.5
20260509035846 64 128 4.0 7.0 0.00 0.00 0.00 74 1029.1
20260509035346 63 121 3.0 5.0 0.00 0.00 0.00 76 1029.5
20260509034845 63 155 4.0 7.0 0.00 0.00 0.00 74 1029.5
20260509034345 64 138 6.0 7.0 0.00 0.00 0.00 72 1029.5
20260509033846 63 150 4.0 7.0 0.00 0.00 0.00 73 1029.8
20260509033345 63 125 4.0 7.0 0.00 0.00 0.00 75 1029.5
20260509032845 63 173 7.0 8.0 0.00 0.00 0.00 74 1029.8
20260509032345 63 138 6.0 8.0 0.00 0.00 0.00 73 1029.8
20260509031845 64 142 3.0 8.0 0.00 0.00 0.00 75 1029.8
20260509031345 64 160 4.0 5.0 0.00 0.00 0.00 72 1030.1
20260509030851 64 148 5.0 8.0 0.00 0.00 0.00 75 1029.8
20260509030345 64 142 7.0 9.0 0.00 0.00 0.00 72 1030.1
20260509025846 64 148 4.0 7.0 0.00 0.00 0.00 74 1030.5
20260509025345 63 88 3.0 6.0 0.00 0.00 0.00 77 1030.5
20260509024845 63 131 4.0 6.0 0.00 0.00 0.00 76 1030.5
20260509024345 63 150 7.0 9.0 0.00 0.00 0.00 75 1030.5
20260509023846 64 132 4.0 6.0 0.00 0.00 0.00 73 1030.5
20260509023345 63 100 4.0 5.0 0.00 0.00 0.00 76 1030.8
20260509022846 62 143 4.0 7.0 0.00 0.00 0.00 77 1030.8
20260509022347 62 152 4.0 9.0 0.00 0.00 0.00 78 1030.8
20260509021845 62 128 4.0 7.0 0.00 0.00 0.00 78 1030.8
20260509021345 63 132 6.0 8.0 0.00 0.00 0.00 76 1030.8
20260509020846 64 125 3.0 5.0 0.00 0.00 0.00 76 1030.8
20260509020346 64 162 3.0 7.0 0.00 0.00 0.00 77 1031.2
20260509015846 63 84 2.0 5.0 0.00 0.00 0.00 79 1030.8
20260509015347 62 109 3.0 7.0 0.00 0.00 0.00 80 1031.2
20260509014846 62 99 5.0 7.0 0.00 0.00 0.00 79 1031.2
20260509014345 62 116 3.0 5.0 0.00 0.00 0.00 82 1031.2
20260509013846 62 137 5.0 7.0 0.00 0.00 0.00 83 1031.5
20260509013345 61 153 5.0 6.0 0.00 0.00 0.00 85 1031.2
20260509012845 61 116 4.0 5.0 0.00 0.00 0.00 86 1031.5
20260509012346 61 146 4.0 6.0 0.00 0.00 0.00 86 1031.5
20260509011845 60 159 3.0 3.0 0.00 0.00 0.00 89 1031.5